Retour au catalogue

TIUNGSAT 1

ActifScienceVLEO
NORAD 26548·PAYLOAD·🇲🇾 Malaysia

Lancé Sep 26, 2000 depuis Baikonur Cosmodrome

Loading…

Prochains Passages (prochaines 24 heures)

TLE

FraisSource: Space-Track

Époque: Sep 14, 2026, 20:36 UTC

1 26548U 00057D   26257.85839690  .00001991  00000-0  16157-3 0  9990
2 26548  64.5453 199.9869 0045802 280.0556  79.5393 15.01975503409690

Suivez TIUNGSAT 1 en temps réel avec AllMySat

Download on the App Store